FW9412 Weather Reports


Display with metric or nautical units.
time (UTC)temp
F
wind
direction
speed
MPH
gust
MPH
rain 1hr
in
rain 24hr
in
rain mn
in
humidity
%
barometer
mb
20260904181941 73 153 0.0 0.0 0.00 0.00 0.00 69 1014.2
20260904181437 73 178 1.0 1.0 0.00 0.00 0.00 68 1014.3
20260904180932 74 286 0.0 1.0 0.00 0.00 0.00 68 1014.2
20260904180427 74 207 2.0 2.0 0.00 0.00 0.00 71 1014.1
20260904175926 74 192 1.0 2.0 0.00 0.00 0.00 70 1014.2
20260904175425 73 249 2.0 2.0 0.00 0.00 0.00 69 1014.3
20260904174920 74 240 2.0 2.0 0.00 0.00 0.00 68 1014.4
20260904174415 72 129 0.0 1.0 0.00 0.00 0.00 73 1014.7
20260904173912 73 181 1.0 2.0 0.00 0.00 0.00 72 1014.4
20260904173407 73 184 1.0 1.0 0.00 0.00 0.00 70 1014.5
20260904172903 73 186 1.0 2.0 0.00 0.00 0.00 70 1014.3
20260904172402 73 144 1.0 1.0 0.00 0.00 0.00 71 1014.5
20260904171857 73 184 1.0 1.0 0.00 0.00 0.00 69 1014.4
20260904171352 73 180 0.0 0.0 0.00 0.00 0.00 70 1014.7
20260904170848 73 189 1.0 2.0 0.00 0.00 0.00 69 1014.3
20260904170343 73 203 2.0 2.0 0.00 0.00 0.00 71 1014.7
20260904165838 73 222 1.0 2.0 0.00 0.00 0.00 72 1014.7
20260904165331 72 203 1.0 2.0 0.00 0.00 0.00 71 1014.7
20260904164827 72 196 1.0 1.0 0.00 0.00 0.00 72 1014.7
20260904164321 72 184 1.0 1.0 0.00 0.00 0.00 71 1014.7
20260904163818 72 175 1.0 1.0 0.00 0.00 0.00 72 1014.7
20260904163317 72 188 2.0 2.0 0.00 0.00 0.00 71 1014.9
20260904162817 73 167 0.0 1.0 0.00 0.00 0.00 72 1014.5
20260904162312 73 214 1.0 2.0 0.00 0.00 0.00 72 1014.3
20260904161807 72 161 0.0 0.0 0.00 0.00 0.00 71 1014.5
20260904161302 73 143 0.0 1.0 0.00 0.00 0.00 71 1014.6
20260904160757 73 177 0.0 1.0 0.00 0.00 0.00 72 1014.7
20260904160252 73 140 0.0 1.0 0.00 0.00 0.00 72 1014.7
20260904155752 73 186 1.0 1.0 0.00 0.00 0.00 72 1014.3
20260904155247 73 157 1.0 1.0 0.00 0.00 0.00 71 1014.5
20260904154745 72 178 0.0 0.0 0.00 0.00 0.00 71 1014.6
20260904154241 72 178 1.0 1.0 0.00 0.00 0.00 75 1014.8
20260904153736 72 200 1.0 1.0 0.00 0.00 0.00 74 1014.5
20260904153231 72 163 0.0 0.0 0.00 0.00 0.00 76 1014.5
20260904152728 71 102 1.0 2.0 0.00 0.00 0.00 80 1014.4
20260904152228 71 173 0.0 1.0 0.00 0.00 0.00 77 1014.6
20260904151723 71 358 0.0 1.0 0.00 0.00 0.00 76 1014.6
20260904151222 71 169 0.0 0.0 0.00 0.00 0.00 78 1014.4
20260904150718 71 192 1.0 1.0 0.00 0.00 0.00 78 1014.6
20260904150213 71 171 1.0 2.0 0.00 0.00 0.00 79 1014.6
20260904145711 71 169 0.0 1.0 0.00 0.00 0.00 80 1014.7
20260904145207 71 250 2.0 2.0 0.00 0.00 0.00 77 1014.7
20260904144702 70 137 1.0 2.0 0.00 0.00 0.00 79 1014.6
20260904144158 70 191 1.0 1.0 0.00 0.00 0.00 84 1014.6
20260904143653 69 98 3.0 3.0 0.00 0.00 0.00 83 1014.5
20260904143149 69 130 0.0 1.0 0.00 0.00 0.00 85 1014.4
20260904142646 69 166 0.0 0.0 0.00 0.00 0.00 87 1014.4
20260904142141 69 163 0.0 0.0 0.00 0.00 0.00 88 1014.8
20260904141636 69 177 1.0 1.0 0.00 0.00 0.00 88 1014.5
20260904141132 69 154 0.0 1.0 0.00 0.00 0.00 88 1014.8
20260904140628 69 183 0.0 1.0 0.00 0.00 0.00 89 1014.6
20260904140127 69 171 0.0 0.0 0.00 0.00 0.00 90 1014.7
20260904135627 68 184 0.0 1.0 0.00 0.00 0.00 90 1014.6
20260904135123 68 186 0.0 1.0 0.00 0.00 0.00 91 1014.7
20260904134619 68 169 0.0 0.0 0.00 0.00 0.00 92 1014.8
20260904134117 68 189 1.0 2.0 0.00 0.00 0.00 93 1014.9
20260904133613 68 167 0.0 0.0 0.00 0.00 0.00 93 1014.6
20260904133108 68 219 0.0 0.0 0.00 0.00 0.00 94 1014.7
20260904132608 67 188 0.0 0.0 0.00 0.00 0.00 94 1014.8
20260904132103 67 176 0.0 0.0 0.00 0.00 0.00 95 1014.8
20260904131603 66 197 0.0 0.0 0.00 0.00 0.00 95 1014.9
20260904131058 66 187 0.0 0.0 0.00 0.00 0.00 95 1014.9
20260904130558 66 184 0.0 0.0 0.00 0.00 0.00 96 1014.6
20260904130053 66 195 0.0 0.0 0.00 0.00 0.00 96 1014.5
20260904125549 66 186 0.0 0.0 0.00 0.00 0.00 96 1014.5
20260904125044 66 164 0.0 0.0 0.00 0.00 0.00 95 1014.4
20260904124539 66 175 0.0 0.0 0.00 0.00 0.00 95 1014.3
20260904124035 66 185 0.0 0.0 0.00 0.00 0.00 95 1014.5
20260904123535 66 178 0.0 0.0 0.00 0.00 0.00 95 1014.7
20260904123030 66 184 0.0 0.0 0.00 0.00 0.00 95 1014.5
20260904122525 66 173 0.0 0.0 0.00 0.00 0.00 95 1014.7
20260904122020 66 175 0.0 0.0 0.00 0.00 0.00 96 1014.7
20260904121515 65 197 0.0 0.0 0.00 0.00 0.00 96 1014.8
20260904121011 65 196 0.0 0.0 0.00 0.00 0.00 96 1014.4
20260904120507 65 199 0.0 0.0 0.00 0.00 0.00 96 1014.7
20260904120002 65 184 0.0 0.0 0.00 0.00 0.00 96 1014.7
20260904115457 65 173 0.0 0.0 0.00 0.00 0.00 96 1014.5
20260904114956 65 189 0.0 0.0 0.00 0.00 0.00 96 1014.4
20260904114452 64 197 0.0 0.0 0.00 0.00 0.00 96 1014.6
20260904113947 64 184 0.0 0.0 0.00 0.00 0.00 96 1014.4
20260904113446 64 188 0.0 0.0 0.00 0.00 0.00 96 1014.6
20260904112945 64 177 0.0 0.0 0.00 0.00 0.00 97 1014.5
20260904112442 64 184 0.0 0.0 0.00 0.00 0.00 97 1014.2
20260904111937 64 171 0.0 0.0 0.00 0.00 0.00 97 1014.2
20260904111433 64 174 0.0 0.0 0.00 0.00 0.00 97 1014.3
20260904110928 64 166 0.0 0.0 0.00 0.00 0.00 97 1014.5
20260904110427 64 174 0.0 0.0 0.00 0.00 0.00 97 1014.4
20260904105922 64 169 0.0 0.0 0.00 0.00 0.00 97 1014.1
20260904105417 64 174 0.0 0.0 0.00 0.00 0.00 96 1014.1
20260904104912 64 193 0.0 0.0 0.00 0.00 0.00 96 1014.2
20260904104407 64 171 0.0 0.0 0.00 0.00 0.00 96 1014.1
20260904103904 64 184 0.0 0.0 0.00 0.00 0.00 96 1013.9
20260904103404 64 189 0.0 0.0 0.00 0.00 0.00 96 1014.1
20260904102901 64 200 0.0 0.0 0.00 0.00 0.00 96 1013.8
20260904102355 64 177 0.0 0.0 0.00 0.00 0.00 96 1014.2
20260904101851 65 177 0.0 0.0 0.00 0.00 0.00 96 1014.1
20260904101348 65 172 0.0 0.0 0.00 0.00 0.00 96 1013.6
20260904100843 65 185 0.0 0.0 0.00 0.00 0.00 96 1013.8
20260904100339 65 180 0.0 0.0 0.00 0.00 0.00 96 1013.4
20260904095834 65 172 0.0 0.0 0.00 0.00 0.00 96 1013.6
20260904095328 65 177 0.0 0.0 0.00 0.00 0.00 96 1013.5
20260904094823 65 175 0.0 0.0 0.00 0.00 0.00 96 1013.6
20260904094318 65 170 0.0 0.0 0.00 0.00 0.00 96 1013.5
20260904093814 65 171 0.0 0.0 0.00 0.00 0.00 96 1013.6
20260904093309 65 170 0.0 0.0 0.00 0.00 0.00 96 1013.4
20260904092804 65 173 0.0 0.0 0.00 0.00 0.00 96 1013.5
20260904092301 65 178 0.0 0.0 0.00 0.00 0.00 96 1013.3
20260904091757 65 178 0.0 0.0 0.00 0.00 0.00 96 1013.3
20260904091256 66 170 0.0 0.0 0.00 0.00 0.00 96 1013.5
20260904090752 66 171 0.0 0.0 0.00 0.00 0.00 96 1013.6
20260904090248 66 174 0.0 0.0 0.00 0.00 0.00 96 1013.3
20260904085742 66 180 0.0 0.0 0.00 0.00 0.00 96 1013.3
20260904085238 66 171 0.0 0.0 0.00 0.00 0.00 96 1013.3
20260904084732 66 171 0.0 0.0 0.00 0.00 0.00 96 1013.2
20260904084228 66 171 0.0 0.0 0.00 0.00 0.00 96 1013.3
20260904083725 66 177 0.0 0.0 0.00 0.00 0.00 97 1013.0
20260904083221 66 174 0.0 0.0 0.00 0.00 0.00 97 1013.2
20260904082720 66 171 0.0 0.0 0.00 0.00 0.00 97 1013.1
20260904082216 66 169 0.0 0.0 0.00 0.00 0.00 97 1013.0
20260904081711 66 178 0.0 0.0 0.00 0.00 0.00 97 1012.9
20260904081207 66 181 0.0 0.0 0.00 0.00 0.00 97 1012.8
20260904080702 66 174 0.0 0.0 0.00 0.00 0.00 97 1012.9
20260904080158 66 171 0.0 0.0 0.00 0.00 0.00 97 1012.8
20260904075655 67 174 0.0 0.0 0.00 0.00 0.00 97 1013.1
20260904075149 67 185 0.0 0.0 0.00 0.00 0.00 97 1012.8
20260904074648 67 170 0.0 0.0 0.00 0.00 0.00 97 1012.8
20260904074143 67 172 0.0 0.0 0.00 0.00 0.00 97 1012.6
20260904073638 67 199 0.0 0.0 0.00 0.00 0.00 97 1012.8
20260904073134 67 169 0.0 0.0 0.00 0.00 0.00 97 1012.6
20260904072630 67 156 0.0 0.0 0.00 0.00 0.00 97 1012.6
20260904072125 67 176 0.0 0.0 0.00 0.00 0.00 97 1012.5
20260904071620 67 177 0.0 0.0 0.00 0.00 0.00 97 1012.5
20260904071115 67 174 0.0 0.0 0.00 0.00 0.00 97 1012.6
20260904070614 67 186 0.0 0.0 0.00 0.00 0.00 97 1012.7
20260904070109 67 181 0.0 0.0 0.00 0.00 0.00 97 1012.7
20260904065604 67 172 0.0 0.0 0.00 0.00 0.00 97 1012.7
20260904065100 67 171 0.0 0.0 0.00 0.00 0.00 97 1012.5
20260904064555 67 174 0.0 0.0 0.00 0.00 0.00 97 1012.4
20260904064050 67 169 0.0 0.0 0.00 0.00 0.00 97 1012.5
20260904063546 68 170 0.0 0.0 0.00 0.00 0.00 97 1012.7
20260904063041 68 169 0.0 0.0 0.00 0.00 0.00 97 1012.5
20260904062538 68 175 0.0 0.0 0.00 0.00 0.00 97 1012.8
20260904062033 68 179 0.0 1.0 0.00 0.00 0.00 97 1012.7
20260904061529 68 182 1.0 1.0 0.00 0.00 0.00 97 1012.9
20260904061025 68 190 1.0 1.0 0.00 0.00 0.00 97 1012.9
20260904060521 68 179 1.0 1.0 0.00 0.00 0.00 97 1012.8
20260904060017 68 156 1.0 1.0 0.00 0.00 0.00 97 1013.0
20260904055512 68 174 0.0 0.0 0.00 0.00 0.00 97 1013.1
20260904055007 68 173 0.0 0.0 0.00 0.00 0.00 97 1013.0
20260904054503 68 172 0.0 0.0 0.00 0.00 0.00 97 1012.9
20260904053959 68 169 0.0 0.0 0.00 0.00 0.00 97 1013.2
20260904053458 68 163 0.0 0.0 0.00 0.00 0.00 97 1012.9
20260904052953 69 165 0.0 0.0 0.00 0.00 0.00 97 1013.1
20260904052450 69 171 0.0 0.0 0.00 0.00 0.00 96 1013.1
20260904051945 69 170 0.0 0.0 0.00 0.00 0.00 96 1013.1
20260904051442 69 172 0.0 1.0 0.00 0.00 0.00 96 1013.2
20260904050941 69 171 0.0 0.0 0.00 0.00 0.00 96 1013.5
20260904050437 69 171 0.0 0.0 0.00 0.00 0.00 95 1013.4
20260904045938 69 171 0.0 0.0 0.00 0.00 0.00 95 1013.2
20260904045432 69 171 0.0 0.0 0.00 0.00 0.00 94 1013.3
20260904044927 69 170 0.0 0.0 0.00 0.00 0.00 94 1013.2
20260904044423 69 170 0.0 0.0 0.00 0.00 0.00 94 1013.5
20260904043919 69 170 0.0 0.0 0.00 0.00 0.00 94 1013.1
20260904043416 69 169 0.0 0.0 0.00 0.00 0.00 94 1013.3
20260904042910 69 169 0.0 0.0 0.00 0.00 0.00 93 1013.1
20260904042407 69 169 0.0 0.0 0.00 0.00 0.00 93 1013.4
20260904041901 69 169 0.0 0.0 0.00 0.00 0.00 93 1013.2
20260904041358 69 168 0.0 0.0 0.00 0.00 0.00 93 1013.2
20260904040854 69 169 0.0 0.0 0.00 0.00 0.00 93 1013.1
20260904040348 69 164 0.0 0.0 0.00 0.00 0.00 94 1013.2
20260904035844 69 162 0.0 0.0 0.00 0.00 0.00 93 1013.2
20260904035340 69 162 0.0 0.0 0.00 0.00 0.00 93 1012.9
20260904034839 69 162 0.0 0.0 0.00 0.00 0.00 93 1013.2
20260904034335 69 162 0.0 0.0 0.00 0.00 0.00 93 1013.1
20260904033831 69 162 0.0 0.0 0.00 0.00 0.00 93 1013.2
20260904033327 70 162 0.0 0.0 0.00 0.00 0.00 93 1013.0
20260904032823 69 162 0.0 0.0 0.00 0.00 0.00 93 1013.1
20260904032323 69 162 0.0 0.0 0.00 0.00 0.00 93 1013.1
20260904031816 69 161 0.0 0.0 0.00 0.00 0.00 94 1013.0
20260904031312 70 161 0.0 0.0 0.00 0.00 0.00 94 1013.2
20260904030808 70 161 0.0 0.0 0.00 0.00 0.00 94 1013.2
20260904030303 70 161 0.0 0.0 0.00 0.00 0.00 94 1013.0
20260904025759 70 161 0.0 0.0 0.00 0.00 0.00 93 1013.3
20260904025255 71 161 0.0 0.0 0.00 0.00 0.00 93 1013.3
20260904024750 71 161 0.0 0.0 0.00 0.00 0.00 91 1013.2
20260904024245 71 161 0.0 0.0 0.00 0.00 0.00 91 1013.1
20260904023741 70 161 0.0 0.0 0.00 0.00 0.00 88 1013.3
20260904023237 70 161 0.0 0.0 0.00 0.00 0.00 88 1013.3
20260904022730 71 161 0.0 0.0 0.00 0.00 0.00 87 1013.5
20260904022228 71 161 0.0 0.0 0.00 0.00 0.00 86 1013.5
20260904021724 71 161 0.0 0.0 0.00 0.00 0.00 86 1013.3
20260904021224 71 161 0.0 0.0 0.00 0.00 0.00 86 1013.2
20260904020720 70 161 0.0 0.0 0.00 0.00 0.00 88 1013.4
20260904020219 70 161 0.0 0.0 0.00 0.00 0.00 88 1013.5
20260904015717 70 161 0.0 0.0 0.00 0.00 0.00 88 1013.3
20260904015212 71 161 0.0 0.0 0.00 0.00 0.00 89 1013.3
20260904014706 71 161 0.0 0.0 0.00 0.00 0.00 89 1013.3
20260904014201 71 161 0.0 0.0 0.00 0.00 0.00 89 1013.6
20260904013658 71 161 0.0 0.0 0.00 0.00 0.00 89 1013.5
20260904013153 71 161 0.0 0.0 0.00 0.00 0.00 89 1013.4
20260904012649 71 161 0.0 0.0 0.00 0.00 0.00 88 1013.4
20260904012148 71 161 0.0 0.0 0.00 0.00 0.00 89 1013.3
20260904011647 71 161 0.0 0.0 0.00 0.00 0.00 89 1013.2
20260904011143 71 161 0.0 0.0 0.00 0.00 0.00 90 1013.3
20260904010638 71 161 0.0 0.0 0.00 0.00 0.00 90 1013.2
20260904010135 71 161 0.0 0.0 0.00 0.00 0.00 90 1013.3
20260904005630 71 161 0.0 0.0 0.00 0.00 0.00 90 1013.3
20260904005125 71 161 0.0 0.0 0.00 0.00 0.00 90 1013.4
20260904004621 71 161 0.0 0.0 0.00 0.00 0.00 89 1013.5
20260904004120 71 161 0.0 0.0 0.00 0.00 0.00 89 1013.3
20260904003616 72 161 0.0 0.0 0.00 0.00 0.00 89 1013.4
20260904003112 72 161 0.0 0.0 0.00 0.00 0.00 88 1013.2
20260904002608 72 161 0.0 0.0 0.00 0.00 0.00 87 1013.4
20260904002102 72 161 0.0 0.0 0.00 0.00 0.00 87 1013.3
20260904001558 72 161 0.0 0.0 0.00 0.00 0.00 86 1013.1
20260904001056 72 161 0.0 0.0 0.00 0.00 0.00 86 1013.0
20260904000557 72 161 0.0 0.0 0.00 0.00 0.00 86 1013.2
20260904000053 73 161 0.0 0.0 0.00 0.00 0.00 85 1013.2
20260903235547 73 161 0.0 0.0 0.00 0.00 0.00 85 1013.1
20260903235043 73 161 0.0 0.0 0.00 0.00 0.00 84 1013.3
20260903234538 73 161 0.0 0.0 0.00 0.00 0.00 84 1013.1
20260903234034 74 161 0.0 0.0 0.00 0.00 0.00 83 1013.0
20260903233530 74 160 0.0 0.0 0.00 0.00 0.00 83 1013.0
20260903233025 74 171 0.0 0.0 0.00 0.00 0.00 83 1013.2
20260903232520 74 160 0.0 0.0 0.00 0.00 0.00 83 1013.0
20260903232015 74 160 0.0 0.0 0.00 0.00 0.00 83 1013.4
20260903231509 74 159 0.0 0.0 0.00 0.00 0.00 84 1013.1
20260903231004 74 163 0.0 0.0 0.00 0.00 0.00 85 1013.4
20260903230500 75 164 0.0 0.0 0.00 0.00 0.00 84 1013.0
20260903225956 75 171 0.0 0.0 0.00 0.00 0.00 84 1012.9
20260903225451 75 162 0.0 0.0 0.00 0.00 0.00 83 1012.9
20260903224947 75 153 0.0 0.0 0.00 0.00 0.00 83 1013.1
20260903224443 75 174 0.0 0.0 0.00 0.00 0.00 82 1012.8
20260903223939 75 174 0.0 0.0 0.00 0.00 0.00 81 1012.6
20260903223438 75 174 0.0 0.0 0.00 0.00 0.00 81 1012.7
20260903222937 75 174 0.0 0.0 0.00 0.00 0.00 81 1012.7
20260903222432 76 174 0.0 0.0 0.00 0.00 0.00 80 1012.6
20260903221931 76 174 0.0 0.0 0.00 0.00 0.00 79 1012.6
20260903221426 76 174 0.0 0.0 0.00 0.00 0.00 78 1012.7
20260903220923 76 174 0.0 0.0 0.00 0.00 0.00 79 1012.6
20260903220418 76 174 0.0 0.0 0.00 0.00 0.00 78 1012.6
20260903215915 76 174 0.0 0.0 0.00 0.00 0.00 78 1012.6
20260903215413 77 174 0.0 0.0 0.00 0.00 0.00 76 1012.7
20260903214910 77 175 0.0 0.0 0.00 0.00 0.00 78 1012.6
20260903214407 77 174 0.0 0.0 0.00 0.00 0.00 75 1012.6
20260903213906 77 175 0.0 0.0 0.00 0.00 0.00 79 1012.6
20260903213402 77 175 0.0 0.0 0.00 0.00 0.00 79 1012.7
20260903212857 77 174 0.0 0.0 0.00 0.00 0.00 79 1012.6
20260903212354 77 174 0.0 0.0 0.00 0.00 0.00 77 1012.4
20260903211853 78 175 0.0 0.0 0.00 0.00 0.00 75 1012.6
20260903211349 78 175 0.0 0.0 0.00 0.00 0.00 75 1012.5
20260903210845 78 175 0.0 0.0 0.00 0.00 0.00 74 1012.7
20260903210345 78 175 0.0 0.0 0.00 0.00 0.00 75 1012.7
20260903205845 78 175 0.0 0.0 0.00 0.00 0.00 73 1012.9
20260903205344 78 175 0.0 0.0 0.00 0.00 0.00 72 1012.8
20260903204839 78 175 0.0 0.0 0.00 0.00 0.00 73 1013.1
20260903204335 78 175 0.0 0.0 0.00 0.00 0.00 73 1012.7
20260903203831 78 175 0.0 0.0 0.00 0.00 0.00 74 1013.2
20260903203326 78 174 0.0 0.0 0.00 0.00 0.00 74 1013.1
20260903202825 78 175 0.0 0.0 0.00 0.00 0.00 71 1013.0
20260903202322 78 175 0.0 0.0 0.00 0.00 0.00 74 1013.2
20260903201821 78 175 0.0 0.0 0.00 0.00 0.00 71 1012.9
20260903201317 78 178 0.0 0.0 0.00 0.00 0.00 71 1013.3
20260903200815 78 177 0.0 0.0 0.00 0.00 0.00 69 1012.9
20260903200311 79 177 0.0 0.0 0.00 0.00 0.00 71 1013.1
20260903195806 78 178 0.0 0.0 0.00 0.00 0.00 71 1013.2
20260903195306 78 184 1.0 1.0 0.00 0.00 0.00 71 1013.1
20260903194757 78 174 0.0 0.0 0.00 0.00 0.00 70 1013.1
20260903194253 78 174 0.0 0.0 0.00 0.00 0.00 70 1013.1
20260903193748 78 184 0.0 1.0 0.00 0.00 0.00 68 1013.0
20260903193244 78 181 1.0 1.0 0.00 0.00 0.00 69 1013.4
20260903192739 79 181 1.0 1.0 0.00 0.00 0.00 67 1013.3
20260903192235 80 185 1.0 1.0 0.00 0.00 0.00 67 1013.5
20260903191731 80 180 1.0 1.0 0.00 0.00 0.00 67 1013.5
20260903191227 79 195 1.0 1.0 0.00 0.00 0.00 66 1013.2
20260903190721 79 187 1.0 1.0 0.00 0.00 0.00 63 1013.4
20260903190220 79 180 1.0 1.0 0.00 0.00 0.00 65 1013.2
20260903185716 80 190 1.0 1.0 0.00 0.00 0.00 62 1013.6
20260903185210 79 173 0.0 0.0 0.00 0.00 0.00 63 1013.6
20260903184707 78 227 2.0 2.0 0.00 0.00 0.00 63 1013.6
20260903184203 79 178 0.0 0.0 0.00 0.00 0.00 64 1013.5
20260903183702 79 178 0.0 1.0 0.00 0.00 0.00 63 1013.7
20260903183157 78 170 0.0 0.0 0.00 0.00 0.00 69 1013.8
20260903182655 79 189 1.0 1.0 0.00 0.00 0.00 68 1013.9
20260903182151 78 176 0.0 1.0 0.00 0.00 0.00 69 1013.6